Weather observations for the past three days for
Cambridge Municipal Airport
| Date | Time (cdt) | Wind (kph) | Vis. (km) | Weather | Sky Cond. | Temperature (ºC) | Relative Humidity | Wind Chill (°C) | Heat Index (°C) | Pressure | Precipitation (cm) | ||||||
|---|---|---|---|---|---|---|---|---|---|---|---|---|---|---|---|---|---|
| Air | Dwpt | 6 hour | altimeter (cm) | sea level (mb) | 1 hr | 3 hr | 6 hr | ||||||||||
| Max. | Min. | ||||||||||||||||
| 06 | 20:45 | NW 7 | 16.09 | Overcast | OVC060 | 6 | -5 | 46% | 5 | 76.1 | 0.0 | ||||||
| 06 | 20:29 | NW 7 | 16.09 | Overcast | OVC055 | 6 | -6 | 42% | 5 | 76.1 | 0.0 | ||||||
| 06 | 20:09 | NW 9 | 16.09 | Overcast | OVC055 | 6 | -6 | 42% | 4 | 76.1 | 0.0 | ||||||
| 06 | 19:46 | NW 11 | 14.48 | Overcast | OVC055 | 6 | -6 | 42% | 4 | 76.1 | 0.0 | ||||||
| 06 | 19:26 | NW 13 | 16.09 | Overcast | OVC060 | 6 | -6 | 42% | 4 | 76.1 | 0.0 | ||||||
| 06 | 19:08 | W 11 | 14.48 | Overcast | OVC055 | 6 | -6 | 42% | 4 | 76.12 | 0.0 | ||||||
| 06 | 18:49 | W 11 | 16.09 | Overcast | OVC050 | 7 | -6 | 39% | 5 | 76.12 | 0.0 | ||||||
| 06 | 18:22 | NW 15 | 16.09 | Overcast | OVC055 | 6 | -6 | 42% | 3 | 76.15 | 0.0 | ||||||
| 06 | 18:01 | W 11 | 16.09 | Overcast | OVC055 | 7 | -6 | 39% | 5 | 76.15 | 0.0 | ||||||
| 06 | 17:42 | Calm | 16.09 | Overcast | OVC055 | 7 | -6 | 39% | 0 | 0.0 | |||||||
| 06 | 17:21 | NW 22 | 16.09 | Overcast | OVC055 | 7 | -6 | 39% | 4 | 76.15 | 0.0 | ||||||
| 06 | 17:04 | W 15 | 16.09 | Overcast | OVC055 | 6 | -6 | 42% | 3 | 76.17 | 0.0 | ||||||
| 06 | 16:41 | W 11 | 16.09 | Overcast | OVC050 | 6 | -6 | 42% | 4 | 76.17 | 0.0 | ||||||
| 06 | 16:22 | Vrbl 11 | 16.09 | Overcast | OVC049 | 6 | -6 | 42% | 4 | 76.17 | 0.0 | ||||||
| 06 | 16:01 | NW 15 | 16.09 | Overcast | OVC047 | 6 | -6 | 42% | 3 | 76.2 | 0.0 | ||||||
| 06 | 15:42 | NW 17 | 16.09 | Overcast | OVC046 | 6 | -6 | 42% | 3 | 76.2 | 0.0 | ||||||
| 06 | 15:21 | W 15 G 28 | 16.09 | Overcast | OVC046 | 6 | -6 | 42% | 3 | 76.2 | 0.0 | ||||||
| 06 | 15:02 | W 17 | 16.09 | Overcast | OVC046 | 6 | -6 | 42% | 3 | 76.2 | 0.0 | ||||||
| 06 | 14:41 | NW 17 | 16.09 | Overcast | OVC045 | 6 | -6 | 42% | 3 | 76.2 | 0.0 | ||||||
| 06 | 14:22 | W 13 | 16.09 | Overcast | OVC044 | 6 | -6 | 42% | 4 | 76.23 | 0.0 | ||||||
| 06 | 14:01 | W 17 | 16.09 | Overcast | OVC044 | 5 | -6 | 45% | 2 | 76.2 | 0.0 | ||||||
| 06 | 13:43 | W 15 G 28 | 16.09 | Overcast | OVC044 | 5 | -6 | 45% | 2 | 76.23 | 0.0 | ||||||
| 06 | 13:21 | NW 19 G 30 | 16.09 | Overcast | OVC044 | 5 | -6 | 45% | 2 | 76.23 | 0.0 | ||||||
| 06 | 13:02 | Vrbl 9 | 16.09 | Overcast | OVC042 | 5 | -6 | 45% | 3 | 76.23 | 0.0 | ||||||
| 06 | 12:41 | NW 15 | 16.09 | Overcast | OVC042 | 4 | -6 | 48% | 1 | 76.25 | 0.0 | ||||||
| 06 | 12:22 | NW 13 | 16.09 | Overcast | OVC041 | 4 | -6 | 48% | 1 | 76.25 | 0.0 | ||||||
| 06 | 12:01 | NW 11 | 16.09 | Overcast | OVC041 | 5 | -6 | 45% | 3 | 76.25 | 0.0 | ||||||
| 06 | 11:42 | NW 19 G 30 | 16.09 | Overcast | OVC041 | 4 | -6 | 48% | 0 | 76.25 | 0.0 | ||||||
| 06 | 11:24 | NW 15 | 16.09 | Overcast | OVC040 | 4 | -6 | 48% | 1 | 76.25 | 0.0 | ||||||
| 06 | 11:06 | NW 15 | 16.09 | Overcast | OVC040 | 4 | -6 | 48% | 1 | 76.25 | 0.0 | ||||||
| 06 | 10:43 | NW 15 | 16.09 | Overcast | OVC037 | 3 | -6 | 52% | -0 | 76.25 | 0.0 | ||||||
| 06 | 10:24 | NW 19 | 14.48 | Overcast | OVC037 | 3 | -6 | 52% | -1 | 76.25 | 0.0 | ||||||
| 06 | 10:04 | NW 17 | 14.48 | Overcast | OVC037 | 3 | -6 | 52% | -1 | 76.25 | 0.0 | ||||||
| 06 | 09:44 | Calm | 16.09 | Overcast | OVC037 | 3 | -6 | 52% | 76.25 | 0.0 | |||||||
| 06 | 09:28 | NW 15 | 16.09 | Overcast | OVC039 | 3 | -6 | 52% | -0 | 76.23 | 0.0 | ||||||
| 06 | 09:10 | NW 11 | 16.09 | Overcast | OVC039 | 3 | -6 | 52% | 0 | 76.23 | 0.0 | ||||||
| 06 | 08:50 | NW 15 | 16.09 | Overcast | OVC039 | 3 | -5 | 56% | -0 | 76.2 | 0.0 | ||||||
| 06 | 08:32 | NW 11 | 16.09 | Overcast | OVC040 | 3 | -5 | 56% | 0 | 76.2 | 0.0 | ||||||
| 06 | 08:09 | NW 17 | 16.09 | Overcast | OVC041 | 3 | -5 | 56% | -1 | 76.17 | 0.0 | ||||||
| 06 | 07:52 | NW 13 | 14.48 | Overcast | OVC041 | 3 | -5 | 56% | 0 | 76.17 | 0.0 | ||||||
| 06 | 07:34 | NW 13 | 14.48 | Overcast | OVC042 | 2 | -5 | 60% | -1 | 76.17 | 0.0 | ||||||
| 06 | 07:14 | NW 13 | 16.09 | Overcast | OVC041 | 2 | -5 | 60% | -1 | 76.15 | 0.0 | ||||||
| 06 | 06:44 | NW 11 | 16.09 | Overcast | OVC041 | 2 | -5 | 60% | -1 | 76.12 | 0.0 | ||||||
| 06 | 06:25 | W 13 | 16.09 | Overcast | OVC041 | 2 | -5 | 60% | -1 | 76.12 | 0.0 | ||||||
| 06 | 06:04 | NW 9 | 0.00 | Overcast | OVC041 | 2 | -5 | 60% | -0 | 0 | 0.0 | ||||||
| 06 | 05:46 | NW 7 | 16.09 | Overcast | OVC041 | 2 | -5 | 60% | 0 | 76.1 | 0.0 | ||||||
| 06 | 05:25 | NW 9 | 16.09 | Overcast | OVC041 | 2 | -5 | 60% | -0 | 76.07 | 0.0 | ||||||
| 06 | 05:05 | NW 7 | 16.09 | Overcast | OVC041 | 2 | -5 | 60% | 0 | 76.07 | 0.0 | ||||||
| 06 | 04:44 | W 9 | 16.09 | Overcast | OVC041 | 3 | -5 | 56% | 1 | 76.07 | 0.0 | ||||||
| 06 | 04:24 | NW 9 | 16.09 | Overcast | OVC042 | 3 | -6 | 52% | 1 | 76.07 | 0.0 | ||||||
| 06 | 04:02 | NW 11 | 16.09 | Overcast | OVC042 | 3 | -6 | 52% | 0 | 76.05 | 0.0 | ||||||
| 06 | 03:41 | NW 11 | 16.09 | Overcast | OVC042 | 3 | -5 | 56% | 0 | 76.05 | 0.0 | ||||||
| 06 | 03:23 | NW 9 | 16.09 | Overcast | OVC042 | 3 | -5 | 56% | 1 | 76.05 | 0.0 | ||||||
| 06 | 03:06 | NW 9 | 16.09 | Overcast | OVC043 | 2 | -5 | 60% | -0 | 76.05 | 0.0 | ||||||
| 06 | 02:44 | NW 9 | 16.09 | Overcast | OVC043 | 2 | -5 | 60% | -0 | 76.02 | 0.0 | ||||||
| 06 | 02:25 | NW 6 | 16.09 | Overcast | OVC044 | 2 | -5 | 60% | 76.05 | 0.0 | |||||||
| 06 | 02:02 | NW 6 | 16.09 | Overcast | OVC045 | 1 | -5 | 65% | 76.02 | 0.0 | |||||||
| 06 | 01:44 | NW 6 | 16.09 | Overcast | OVC045 | 1 | -5 | 65% | 76.05 | 0.0 | |||||||
| 06 | 01:24 | Calm | 16.09 | Mostly Cloudy | BKN045 | -1 | -6 | 69% | 76.05 | 0.0 | |||||||
| 06 | 01:07 | Calm | 16.09 | A Few Clouds | FEW045 | 0 | -6 | 64% | 76.05 | 0.0 | |||||||
| 06 | 00:46 | Calm | 16.09 | Fair | CLR | -1 | -6 | 69% | 76.05 | 0.0 | |||||||
| 06 | 00:27 | Calm | 16.09 | Fair | CLR | -1 | -6 | 69% | 76.05 | 0.0 | |||||||
| 06 | 00:06 | Calm | 16.09 | Fair | CLR | 0 | -6 | 64% | 76.02 | 0.0 | |||||||
| 05 | 23:48 | NW 6 | 16.09 | Fair | CLR | -1 | -6 | 69% | 76.02 | 0.0 | |||||||
| 05 | 23:31 | N 6 | 16.09 | Fair | CLR | 0 | -5 | 69% | 76.02 | 0.0 | |||||||
| 05 | 23:08 | N 6 | 16.09 | Fair | CLR | 2 | -5 | 60% | 76 | 0.0 | |||||||
| 05 | 22:46 | NW 6 | 16.09 | Fair | CLR | 2 | -5 | 60% | 76 | 0.0 | |||||||
| 05 | 22:27 | N 7 | 16.09 | Fair | CLR | 3 | -5 | 56% | 1 | 76 | 0.0 | ||||||
| 05 | 22:06 | N 7 | 16.09 | Partly Cloudy | SCT055 | 3 | -5 | 56% | 1 | 75.97 | 0.0 | ||||||
| 05 | 21:47 | N 11 | 16.09 | Overcast | OVC055 | 4 | -5 | 52% | 2 | 75.97 | 0.0 | ||||||
| 05 | 21:30 | N 13 | 16.09 | Overcast | OVC055 | 5 | -5 | 49% | 2 | 75.95 | 0.0 | ||||||
| 05 | 21:06 | N 15 | 16.09 | Overcast | OVC060 | 5 | -6 | 45% | 2 | 75.95 | 0.0 | ||||||
| 05 | 20:42 | NW 17 | 14.48 | Overcast | OVC060 | 6 | -6 | 42% | 3 | 75.9 | 0.0 | ||||||
| 05 | 20:25 | N 15 | 14.48 | Overcast | OVC060 | 6 | -6 | 42% | 3 | 75.9 | 0.0 | ||||||
| 05 | 20:04 | NW 20 G 37 | 16.09 | Overcast | OVC055 | 7 | -6 | 39% | 4 | 0 | 0.0 | ||||||
| 05 | 19:44 | NW 20 | 14.48 | Overcast | OVC060 | 7 | -6 | 39% | 4 | 75.84 | 0.0 | ||||||
| 05 | 19:25 | NW 13 | 16.09 | Mostly Cloudy | BKN055 | 7 | -5 | 43% | 5 | 75.84 | 0.0 | ||||||
| 05 | 19:06 | NW 19 G 33 | 16.09 | Partly Cloudy | SCT060 | 8 | -6 | 37% | 5 | 75.84 | 0.0 | ||||||
| 05 | 18:48 | NW 20 | 16.09 | A Few Clouds | FEW055 | 8 | -5 | 40% | 5 | 75.82 | 0.0 | ||||||
| 05 | 18:24 | NW 26 G 33 | 16.09 | Mostly Cloudy | BKN060 | 9 | -5 | 37% | 6 | 75.79 | 0.0 | ||||||
| 05 | 18:01 | NW 24 | 16.09 | Mostly Cloudy | BKN060 | 9 | -5 | 37% | 6 | 75.79 | 0.0 | ||||||
| 05 | 17:42 | NW 24 G 41 | 16.09 | Mostly Cloudy | BKN065 | 9 | -6 | 34% | 6 | 75.77 | 0.0 | ||||||
| 05 | 17:21 | NW 22 | 16.09 | Overcast | OVC065 | 9 | -6 | 34% | 6 | 75.77 | 0.0 | ||||||
| 05 | 17:02 | NW 22 G 31 | 16.09 | Overcast | OVC065 | 0 | -6 | 64% | -5 | 75.77 | 0.0 | ||||||
| 05 | 16:41 | W 22 G 33 | 16.09 | Overcast | OVC065 | 10 | -6 | 32% | 7 | 75.77 | 0.0 | ||||||
| 05 | 16:22 | NW 26 G 35 | 16.09 | Overcast | OVC070 | 9 | -6 | 34% | 6 | 75.79 | 0.0 | ||||||
| 05 | 16:01 | NW 24 | 16.09 | Overcast | OVC070 | 9 | -6 | 34% | 6 | 75.79 | 0.0 | ||||||
| 05 | 15:43 | NW 17 G 31 | 16.09 | Overcast | BKN060 OVC075 | 9 | -6 | 34% | 7 | 75.79 | 0.0 | ||||||
| 05 | 15:26 | W 15 G 28 | 16.09 | Overcast | OVC065 | 9 | -6 | 34% | 7 | 75.79 | 0.0 | ||||||
| 05 | 15:07 | NW 20 | 16.09 | Overcast | OVC065 | 9 | -6 | 34% | 6 | 75.79 | 0.0 | ||||||
| 05 | 14:46 | NW 24 G 35 | 16.09 | Overcast | OVC065 | 9 | -5 | 37% | 6 | 75.79 | 0.0 | ||||||
| 05 | 14:28 | W 20 G 31 | 16.09 | Overcast | OVC065 | 8 | -6 | 37% | 5 | 75.79 | 0.0 | ||||||
| 05 | 13:57 | W 24 | 16.09 | Overcast | OVC055 | 9 | -6 | 34% | 6 | 75.82 | 0.0 | ||||||
| 05 | 13:41 | NW 19 G 28 | 16.09 | Overcast | OVC055 | 0 | -6 | 64% | -5 | 75.79 | 0.0 | ||||||
| 05 | 13:02 | NW 19 | 16.09 | Overcast | OVC060 | 8 | -6 | 37% | 5 | 75.82 | 0.0 | ||||||
| 05 | 12:41 | NW 17 | 16.09 | Overcast | OVC055 | 7 | -6 | 39% | 4 | 75.82 | 0.0 | ||||||
| 05 | 12:22 | NW 28 G 43 | 16.09 | Overcast | OVC055 | 7 | -6 | 39% | 3 | 75.82 | 0.0 | ||||||
| 05 | 12:01 | NW 19 G 35 | 16.09 | Overcast | OVC050 | 7 | -6 | 39% | 4 | 75.82 | 0.0 | ||||||
| 05 | 11:41 | W 17 G 35 | 16.09 | Mostly Cloudy | BKN047 BKN055 | 7 | -5 | 43% | 4 | 75.79 | 0.0 | ||||||
| 05 | 11:22 | W 22 G 31 | 16.09 | Mostly Cloudy | BKN045 | 7 | -6 | 39% | 4 | 75.82 | 0.0 | ||||||
| 05 | 11:05 | NW 17 G 30 | 16.09 | Partly Cloudy | SCT044 | 6 | -5 | 46% | 3 | 75.82 | 0.0 | ||||||
| 05 | 10:22 | W 19 G 31 | 16.09 | Overcast | FEW055 OVC070 | 5 | -5 | 49% | 2 | 75.79 | 0.0 | ||||||
| 05 | 10:01 | W 19 G 35 | 16.09 | Overcast | SCT055 OVC070 | 5 | -6 | 45% | 2 | 75.79 | 0.0 | ||||||
| 05 | 09:43 | NW 19 | 16.09 | Overcast | OVC070 | 5 | -6 | 45% | 2 | 75.79 | 0.0 | ||||||
| 05 | 09:23 | NW 20 | 16.09 | Overcast | OVC070 | 4 | -7 | 45% | 0 | 75.77 | 0.0 | ||||||
| 05 | 09:07 | NW 17 | 16.09 | Mostly Cloudy | BKN075 | 5 | -7 | 42% | 2 | 75.77 | 0.0 | ||||||
| 05 | 08:47 | NW 15 | 16.09 | A Few Clouds | FEW075 | 4 | -7 | 45% | 1 | 75.74 | 0.0 | ||||||
| 05 | 08:29 | N 20 | 16.09 | Fair | CLR | 4 | -7 | 45% | 0 | 75.72 | 0.0 | ||||||
| 05 | 08:10 | NW 17 | 16.09 | Fair | CLR | 4 | -7 | 45% | 1 | 75.72 | 0.0 | ||||||
| 05 | 07:52 | NW 20 | 16.09 | Fair | CLR | 3 | -7 | 48% | -1 | 75.72 | 0.0 | ||||||
| 05 | 07:33 | Calm | 16.09 | Fair | CLR | 3 | -7 | 48% | 75.69 | 0.0 | |||||||
| 05 | 07:01 | NW 15 | 16.09 | Fair | CLR | 2 | -7 | 52% | -2 | 75.67 | 0.0 | ||||||
| 05 | 06:41 | NW 13 | 16.09 | Fair | CLR | 1 | -6 | 60% | -2 | 75.64 | 0.0 | ||||||
| 05 | 06:21 | NW 13 | 16.09 | Fair | CLR | 1 | -6 | 60% | -2 | 75.62 | 0.0 | ||||||
| 05 | 06:01 | Calm | 16.09 | Fair | CLR | 1 | -5 | 65% | 0 | 0.0 | |||||||
| 05 | 05:41 | NW 11 | 16.09 | Fair | CLR | 1 | -5 | 65% | -2 | 75.62 | 0.0 | ||||||
| 05 | 05:21 | NW 13 | 16.09 | Fair | CLR | 2 | -4 | 65% | -1 | 75.59 | 0.0 | ||||||
| 05 | 05:04 | W 9 | 16.09 | Fair | CLR | 2 | -4 | 65% | -0 | 75.59 | 0.0 | ||||||
| 05 | 04:42 | NW 15 | 16.09 | Fair | CLR | 2 | -4 | 65% | -2 | 75.59 | 0.0 | ||||||
| 05 | 04:24 | NW 11 | 16.09 | Fair | CLR | 2 | -4 | 65% | -1 | 75.57 | 0.0 | ||||||
| 05 | 04:05 | NW 15 | 16.09 | Fair | CLR | 2 | -4 | 65% | -2 | 75.57 | 0.0 | ||||||
| 05 | 03:44 | NW 13 | 16.09 | Fair | CLR | 3 | -4 | 60% | 0 | 75.54 | 0.0 | ||||||
| 05 | 03:25 | NW 11 | 16.09 | Fair | CLR | 3 | -3 | 65% | 0 | 75.51 | 0.0 | ||||||
| 05 | 03:04 | NW 15 | 16.09 | Fair | CLR | 3 | -3 | 65% | -0 | 75.51 | 0.0 | ||||||
| 05 | 02:43 | NW 13 | 16.09 | Fair | CLR | 3 | -3 | 65% | 0 | 75.49 | 0.0 | ||||||
| 05 | 02:14 | NW 13 | 16.09 | Fair | CLR | 4 | -3 | 61% | 1 | 75.49 | 0.0 | ||||||
| 05 | 01:41 | NW 15 | 16.09 | Fair | CLR | 4 | -4 | 56% | 1 | 75.49 | 0.0 | ||||||
| 05 | 01:21 | NW 13 | 16.09 | Fair | CLR | 4 | -4 | 56% | 1 | 75.49 | 0.0 | ||||||
| 05 | 01:01 | NW 13 | 16.09 | Fair | CLR | 5 | -4 | 53% | 2 | 75.46 | 0.0 | ||||||
| 05 | 00:41 | NW 13 | 16.09 | Fair | CLR | 5 | -4 | 53% | 2 | 75.46 | 0.0 | ||||||
| 05 | 00:21 | NW 11 | 16.09 | Fair | CLR | 5 | -4 | 53% | 3 | 75.44 | 0.0 | ||||||
| 05 | 00:01 | NW 13 | 16.09 | Fair | CLR | 6 | -4 | 49% | 4 | 75.44 | 0.0 | ||||||
| 04 | 23:41 | NW 13 | 16.09 | Fair | CLR | 6 | -4 | 49% | 4 | 75.44 | 0.0 | ||||||
| 04 | 23:21 | W 11 | 16.09 | Fair | CLR | 6 | -4 | 49% | 4 | 75.44 | 0.0 | ||||||
| 04 | 23:01 | NW 11 | 16.09 | Partly Cloudy | SCT070 | 6 | -4 | 49% | 4 | 75.44 | 0.0 | ||||||
| 04 | 22:41 | W 9 | 16.09 | Mostly Cloudy | BKN075 | 7 | -4 | 46% | 5 | 75.44 | 0.0 | ||||||
| 04 | 22:21 | NW 13 | 16.09 | Partly Cloudy | SCT075 | 7 | -4 | 46% | 5 | 75.41 | 0.0 | ||||||
| 04 | 22:01 | NW 15 | 16.09 | Mostly Cloudy | BKN080 | 7 | -4 | 46% | 5 | 75.41 | 0.0 | ||||||
| 04 | 21:41 | NW 15 | 16.09 | A Few Clouds | FEW065 | 7 | -4 | 46% | 5 | 75.41 | 0.0 | ||||||
| 04 | 21:24 | NW 9 | 16.09 | Partly Cloudy | SCT065 SCT075 | 7 | -4 | 46% | 5 | 75.39 | 0.0 | ||||||
| 04 | 21:04 | NW 7 | 16.09 | Mostly Cloudy | BKN070 | 7 | -4 | 46% | 6 | 75.36 | 0.0 | ||||||
| 04 | 20:45 | NW 9 | 14.48 | Partly Cloudy | SCT080 | 7 | -4 | 46% | 5 | 75.36 | 0.0 | ||||||
| 04 | 20:26 | NW 11 | 16.09 | A Few Clouds | FEW080 | 8 | -5 | 40% | 6 | 75.34 | 0.0 | ||||||
| 04 | 20:08 | NW 15 | 16.09 | Partly Cloudy | SCT080 | 8 | -5 | 40% | 6 | 75.34 | 0.0 | ||||||
| 04 | 19:12 | NW 28 G 43 | 16.09 | Overcast | OVC060 | 9 | -4 | 40% | 6 | 75.31 | 0.0 | ||||||
| 04 | 18:49 | NW 28 G 39 | 16.09 | Mostly Cloudy | BKN070 | 9 | -4 | 40% | 6 | 75.29 | 0.0 | ||||||
| 04 | 18:33 | NW 28 G 44 | 16.09 | Partly Cloudy | SCT065 | 10 | -5 | 35% | 7 | 75.26 | 0.0 | ||||||
| 04 | 18:06 | NW 35 G 48 | 16.09 | Mostly Cloudy and Breezy | BKN065 | 11 | -5 | 32% | 75.23 | 0.0 | |||||||
| 04 | 17:46 | NW 28 G 52 | 16.09 | Partly Cloudy | SCT065 | 11 | -5 | 32% | 75.23 | 0.0 | |||||||
| 04 | 17:29 | NW 28 G 46 | 16.09 | Fair | CLR | 11 | -5 | 32% | 75.21 | 0.0 | |||||||
| 04 | 17:08 | NW 33 G 50 | 16.09 | Partly Cloudy and Breezy | SCT060 | 12 | -5 | 30% | 75.18 | 0.0 | |||||||
| 04 | 16:48 | NW 28 G 43 | 16.09 | Mostly Cloudy | BKN065 | 12 | -4 | 33% | 75.16 | 0.0 | |||||||
| 04 | 16:30 | W 33 G 46 | 16.09 | Partly Cloudy and Breezy | SCT060 | 12 | -4 | 33% | 75.13 | 0.0 | |||||||
| 04 | 16:10 | W 20 G 46 | 16.09 | Partly Cloudy | SCT060 | 13 | -3 | 33% | 75.11 | 0.0 | |||||||
| 04 | 15:53 | NW 33 G 46 | 16.09 | Mostly Cloudy and Breezy | BKN060 | 12 | -3 | 35% | 75.13 | 0.0 | |||||||
| 04 | 14:09 | NW 35 G 50 | 16.09 | A Few Clouds and Breezy | FEW060 | 14 | -2 | 33% | 75.03 | 0.0 | |||||||
| 04 | 13:51 | NW 30 G 50 | 16.09 | A Few Clouds | FEW055 | 14 | -2 | 33% | 75.03 | 0.0 | |||||||
| 04 | 13:33 | NW 24 G 43 | 16.09 | Mostly Cloudy | BKN055 | 14 | -1 | 36% | 75.01 | 0.0 | |||||||
| 04 | 13:07 | NW 28 G 54 | 16.09 | A Few Clouds | FEW049 | 13 | -1 | 38% | 74.98 | 0.0 | |||||||
| 04 | 12:47 | NW 26 G 39 | 16.09 | Partly Cloudy | SCT049 | 15 | 1 | 39% | 74.96 | 0.0 | |||||||
| 04 | 12:30 | NW 22 G 44 | 16.09 | Partly Cloudy | SCT050 | 14 | 0 | 39% | 74.93 | 0.0 | |||||||
| 04 | 12:10 | NW 24 G 43 | 16.09 | Partly Cloudy | SCT050 | 14 | 1 | 41% | 74.9 | 0.0 | |||||||
| 04 | 11:55 | NW 28 | 16.09 | A Few Clouds | FEW050 | 14 | 0 | 39% | 74.9 | 0.0 | |||||||
| 04 | 11:34 | NW 30 G 52 | 16.09 | A Few Clouds | FEW050 | 14 | 0 | 39% | 74.88 | 0.0 | |||||||
| 04 | 11:05 | NW 26 G 46 | 16.09 | Partly Cloudy | SCT140 | 15 | 1 | 39% | 74.85 | 0.0 | |||||||
| 04 | 10:44 | NW 24 G 33 | 16.09 | Partly Cloudy | FEW040 SCT014 | 15 | 0 | 36% | 74.83 | 0.0 | |||||||
| 04 | 10:26 | NW 33 G 46 | 16.09 | A Few Clouds and Breezy | FEW047 | 14 | 1 | 41% | 74.85 | 0.0 | |||||||
| 04 | 10:09 | NW 20 G 43 | 16.09 | Fair | CLR | 14 | 2 | 44% | 74.83 | 0.0 | |||||||
| 04 | 09:50 | W 26 G 41 | 16.09 | Fair | CLR | 14 | 2 | 44% | 74.83 | 0.0 | |||||||
| 04 | 09:27 | NW 33 G 44 | 16.09 | Fair and Breezy | CLR | 13 | 1 | 44% | 74.8 | 0.0 | |||||||
| 04 | 09:09 | W 26 G 37 | 16.09 | Fair | CLR | 14 | 1 | 41% | 74.8 | 0.0 | |||||||
| 04 | 08:51 | NW 30 G 39 | 16.09 | Fair | CLR | 13 | 1 | 44% | 74.8 | 0.0 | |||||||
| 04 | 07:41 | NW 22 G 37 | 16.09 | Fair | CLR | 14 | 3 | 48% | 0 | 0.0 | |||||||
| 04 | 07:25 | NW 19 | 14.48 | Fair | CLR | 14 | 3 | 48% | 0 | 0.0 | |||||||
| 04 | 07:09 | NW 13 G 26 | 14.48 | Fair | CLR | 14 | 4 | 51% | 0 | 0.0 | |||||||
| 04 | 06:33 | W 20 G 31 | 16.09 | Mostly Cloudy | BKN160 | 15 | 1 | 39% | 0 | 0.0 | |||||||
| 04 | 06:01 | W 15 G 28 | 16.09 | Fair | CLR | 15 | -1 | 34% | 74.55 | 0.0 | |||||||
| 04 | 05:41 | SW 19 G 31 | 16.09 | Fair | CLR | 16 | -1 | 31% | 74.55 | 0.0 | |||||||
| 04 | 05:26 | SW 17 G 39 | 16.09 | A Few Clouds | FEW120 | 16 | -2 | 29% | 74.57 | 0.0 | |||||||
| 04 | 05:08 | SW 17 G 30 | 16.09 | Mostly Cloudy | BKN110 | 15 | -2 | 31% | 74.57 | 0.0 | |||||||
| 04 | 04:49 | SW 22 G 33 | 16.09 | Overcast | OVC110 | 15 | -2 | 31% | 74.55 | 0.0 | |||||||
| 04 | 04:21 | SW 19 | 16.09 | Mostly Cloudy | BKN110 | 15 | -3 | 29% | 74.6 | 0.0 | |||||||
| 04 | 04:01 | SW 19 | 16.09 | Partly Cloudy | SCT110 | 15 | -2 | 31% | 74.63 | 0.0 | |||||||
| 04 | 03:43 | SW 15 | 16.09 | Fair | CLR | 14 | -2 | 33% | 74.65 | 0.0 | |||||||
| 04 | 03:23 | SW 17 | 16.09 | A Few Clouds | FEW200 | 14 | -1 | 36% | 74.68 | 0.0 | |||||||
| 04 | 03:04 | S 15 | 16.09 | Partly Cloudy | SCT210 | 14 | -1 | 36% | 74.7 | 0.0 | |||||||
| 04 | 02:43 | S 13 | 16.09 | Fair | CLR | 14 | -1 | 36% | 74.75 | 0.0 | |||||||
| 04 | 02:23 | S 17 | 16.09 | Fair | CLR | 14 | -1 | 36% | 74.8 | 0.0 | |||||||
| 04 | 02:06 | SW 13 | 16.09 | Fair | CLR | 14 | -1 | 36% | 74.85 | 0.0 | |||||||
| 04 | 01:46 | SW 13 | 16.09 | Fair | CLR | 14 | -1 | 36% | 74.88 | 0.0 | |||||||
| 04 | 01:31 | S 15 | 16.09 | A Few Clouds | FEW190 | 15 | -1 | 34% | 74.88 | 0.0 | |||||||
| 04 | 01:02 | S 17 | 16.09 | Mostly Cloudy | SCT160 BKN190 | 14 | -1 | 36% | 74.9 | 0.0 | |||||||
| 04 | 00:41 | SW 15 | 16.09 | Partly Cloudy | FEW160 SCT200 | 14 | -1 | 36% | 74.96 | 0.0 | |||||||
| 04 | 00:26 | S 17 | 16.09 | Fair | CLR | 14 | -1 | 36% | 74.96 | 0.0 | |||||||
| 04 | 00:06 | S 15 | 16.09 | Fair | CLR | 14 | -1 | 36% | 74.98 | 0.0 | |||||||
| 03 | 23:48 | S 11 | 16.09 | Fair | CLR | 14 | -1 | 36% | 75.01 | 0.0 | |||||||
| 03 | 23:30 | S 13 | 16.09 | Fair | CLR | 13 | -1 | 38% | 75.06 | 0.0 | |||||||
| 03 | 23:08 | S 11 | 16.09 | Fair | CLR | 13 | -1 | 38% | 75.08 | 0.0 | |||||||
| 03 | 22:51 | S 11 | 16.09 | Fair | CLR | 13 | -1 | 38% | 75.13 | 0.0 | |||||||
| 03 | 22:01 | S 7 | 16.09 | Fair | CLR | 11 | 0 | 47% | 75.21 | 0.0 | |||||||
| 03 | 21:41 | S 6 | 16.09 | Fair | CLR | 13 | -1 | 38% | 75.23 | 0.0 | |||||||
| 03 | 21:22 | SW 7 | 16.09 | Fair | CLR | 12 | 0 | 44% | 75.23 | 0.0 | |||||||
| Date | Time (cdt) | Wind (kph) | Vis. (km) | Weather | Sky Cond. | Air | Dwpt | Max. | Min. | Relative Humidity | Wind Chill (°C) | Heat Index (°C) | altimeter (cm) | sea level (mb) | 1 hr | 3 hr | 6 hr |
| 6 hour | |||||||||||||||||
| Temperature (ºC) | Pressure | Precipitation (cm) | |||||||||||||||